DECAYED

OBJECT B, 59480 (Decayed)

Orbit data source: Space-Track

You're viewing an Uncataloged Satellite

Recently launched and/or uncataloged satellites may have evolving metadata. Metadata may include but not limited to: Owner, Maufacturer, Bus, Motor, and Mission.

OBJECT B, 59480 was a satellite owned by Khrunichev (CIS) in LEO that was launched on Thu, 11 Apr 2024 UTC via an ANGARA A5/ORION launch vehicle from the Vostochny Cosmodrome (VOSTO). Unknown objects in Earth's orbit typically refer to objects detected orbiting the Earth but have not yet been identified or cataloged. These objects could be anything from previously untracked satellites, spent rocket stages, debris from satellite collisions, or even natural meteoroids temporarily captured by Earth's gravity. This object's orbit decayed before it could be identified.

Not visible in the next 10 days
Identifier
59480, 2024-069B
Orbit
Decayed
Country
Flag of CISCIS
Related business
Manufacturer
Khrunichev
Mission
Decayed spacecraft
Bus & Motor
CUBESAT 6U, Unknown motor
Mass
10 kg wet, 10 kg dry
Launch date (UTC)
2024-04-11 (1 year ago)
Launch vehicle
ANGARA A5/ORION
Launch site
Vostochny Cosmodrome (VOSTO)
Object type
Unknown
Shape & HBR
Unknown
Radar Cross Section
Small (<0.1 m²)

Expand to show TLE details & history
Last TLE update: 1 year ago

TLE from 1 year ago
0 OBJECT B
1 59480U 24069B   24111.57396182  .07575404  12386-4  12426-2 0  9990
2 59480  51.7066 323.8241 0059331  53.6523  37.6070 16.27124775  1467
Epoch: 2024-04-20T13:46Z
TLE epoch observation values (Epoch: 2024-04-20T13:46:30.301Z)
Latitude
51.83629°
Longitude
0.76589°
Altitude
175.476 km
Speed
7.826 km/s
True Right ascension
03h 46m 07s
True Declination
51° 39' 15"
Sunlit
Object was in daylight at epoch
Visualization orbit readout
Latitude
Unknown
Longitude
Unknown
Altitude
Unknown
Speed
Unknown
Apparent Right ascension
Unknown
Apparent Declination
Unknown
Sunlit
N/A
Visualization observer readout
Local Sidereal Time
19:55:39
Azimuth
Unknown
Elevation
Unknown
Doppler factor
Unknown
Orbital elements
Apogee altitude
239.825 km
Perigee altitude
161.758 km
Semi-major axis
6,578.928 km
Eccentricity
0.00593
Inclination
51.7066°
RAAN
323.8241°
Arg. of periapsis
53.6523°
True anomaly
38.02434°
Mean anomaly
37.607°
Eccentric anomaly
37.81542°
Mean motion
4.06734 °/min
Orbital period
88.51 mins
BSTAR
0.0012426
Loading maneuver chart data...
Computing Atmospheric mass density...
Loading historical data...
Loading historical data...
Loading historical data...
Loading historical data...
Loading historical data...
Loading historical data...
Loading historical data...
Other satellites on launch #69 in the year 2024 (2024-04-11 UTC)

Documentation

Showing up to 5 results
|